Reflectivity
-1 1 -20 -20 -20 -20 -20 -20 -20 -20 -20 -20 -20 -20 -20 -20 -20 -20 -20 -20 -20 -20 -20 -20 -20 -20 -13
-20 -20 -20 -20 -20 -20 -20 -20 -20 -20 -20 -20 -20 -20 -20 -20 -20 -20 -20 -20 -19 -20 -20 -20 -20 -20 -19
-8 -19 -15 -20 -20 -20 -20 -20 -20 -20 -20 -20 -20 -20 -20 -20 -20 -20 -20 -20 -20 -20 -20 -20 -20 -20 -20
2 0 -9 -13 -15 -20 -20 -20 -20 -20 -20 -20 -20 -20 -20 -20 -20 -20 -20 -20 -20 -20 -20 -20 -20 -20 -20
-19 -1 6 5 5 -2 -18 -20 -20 -20 -20 -20 -20 -20 -20 -20 -20 -20 -20 -20 -20 -20 -20 -20 -20 -20 -20
1 -14 -20 -20 -9 -1 -12 -20 -20 -20 -20 -20 -20 -20 -20 -20 -20 -20 -20 -20 -20 -20 -20 -20 -20 -20 -20
-20 -20 -20 -20 -20 -20 -20 -20 -20 -20 -20 -20 -20 -20 -20 -20 -20 -20 -20 -20 -20 -20 -20 -20 -20 -20 -9
-7 -20 -20 -20 -20 -20 -20 -20 -20 -20 -20 -20 -20 -20 -20 -20 -20 -20 -20 -20 -20 -20 -20 -20 -20 -20 -20
-20 -13 -19 -20 -20 -20 -20 -20 -20 -20 -20 -20 -20 -20 -20 -20 -20 -20 -20 -20 -20 -20 -20 -11 -17 -3 -17
-12 -20 -20 -20 -2 2 -4 -19 -20 -11 -20 -20 -20 -20 -20 -20 -20 -20 -20 -20 -20 -20 -20 -20 -20 -17 4
-20 -20 -20 -20 -20 -20 -20 -20 2 3 -20 -20 -15 -20 -20 -20 -20 -20 -20 -20 -20 -20 -20 -20 -20 -12 1
7 -19 2 -12 -20 -9 -3 -7 -20 -20 -20 -20 -20 -17 -9 3 -13 -20 -20 -20 -20 -20 -20 -20 -11 -12 -10
11 14 6 -12 0 -11 -20 -20 -20 -20 -20 -20 -20 -20 8 8 2 -9 -19 -20 -20 -16 -20 -20 -20 -20 -20
11 8 11 14 10 -10 5 0 1 -12 -20 -20 -1 -16 10 12 10 9 -2 3 -4 3 -20 -20 -20 -20 -20
-14 -4 3 7 -8 10 14 14 14 12 2 6 4 6 -16 -4 6 -6 2 7 -11 -5 -11 2 -20 -20 -20
-20 -8 4 7 -16 13 14 13 15 17 10 5 -3 4 6 -5 -15 6 5 5 -16 -6 -20 4 -4 -20 -20
-20 -0 3 8 8 3 -19 9 1 -9 -9 -20 0 -7 5 7 -20 -2 7 -19 -1 -20 -20 -0 -0 -20 -20
Wind_Speed
3 4 5 5 5 5 5 6 6 8 9 10 11 12 12 12 12 12 13 14 11 11 12 14 18 19 17
4 4 5 5 6 6 5 5 6 8 11 13 13 13 13 13 12 13 14 13 11 11 12 14 17 18 19
2 3 3 4 5 6 7 7 7 10 12 13 14 13 13 14 14 14 14 14 12 13 14 17 19 19 19
4 5 5 4 5 6 6 6 7 6 9 12 13 15 15 15 14 14 14 14 14 16 18 19 19 19 20
7 7 7 6 8 6 7 7 8 8 7 7 7 6 6 8 10 11 14 16 18 19 19 19 20 20 21
8 9 10 9 8 8 8 8 8 3 6 7 5 7 7 8 14 16 17 18 19 20 21 22 22 22 23
12 12 11 11 10 11 11 11 10 8 8 10 8 10 9 9 15 16 18 20 21 22 21 22 22 23 23
14 14 13 11 12 11 12 12 10 10 11 12 9 10 8 8 15 16 17 19 21 23 25 26 26 27 27
23 22 21 20 16 8 9 9 10 11 10 10 9 10 10 9 9 16 19 21 22 24 24 24 25 26 20
12 18 20 18 25 17 11 12 11 10 9 11 9 9 11 10 10 10 9 13 16 20 23 24 25 13 11
13 11 11 12 11 12 14 13 12 12 11 9 9 10 10 10 10 11 11 11 11 13 21 23 24 22 12
12 13 12 12 11 12 14 13 12 15 13 13 9 10 9 10 11 11 10 10 10 11 11 18 23 23 24
12 11 10 10 13 13 12 14 14 14 11 15 10 11 10 11 11 10 12 11 11 10 10 11 11 11 12
9 9 7 8 10 10 9 9 10 10 14 16 15 13 10 11 10 11 11 12 10 10 10 11 12 12 14
8 9 9 9 10 8 9 9 11 11 10 8 10 11 10 13 12 12 11 11 11 10 13 13 13 13 15
9 9 9 8 8 8 10 10 9 8 7 8 7 8 9 13 21 12 11 11 11 13 13 14 14 15 15
8 8 8 9 11 8 7 7 9 9 9 8 8 10 11 13 9 17 10 11 11 13 13 13 15 17 14
Wind_Direction
149 176 217 251 258 255 277 281 275 256 273 279 279 278 278 280 283 286 287 280 283 289 301 311 310 307 302
157 197 223 254 269 276 279 275 271 264 271 278 276 277 278 280 280 282 283 281 280 291 296 302 300 298 296
213 201 237 252 268 268 267 270 267 268 267 267 271 272 274 275 275 276 277 279 284 280 286 288 290 288 289
244 259 261 268 268 274 273 253 262 262 261 265 275 277 277 275 275 279 281 281 281 280 282 281 280 280 279
234 240 241 240 242 256 263 271 268 261 263 269 263 263 262 253 259 263 266 273 277 276 275 275 275 278 278
232 237 239 237 242 247 256 260 270 211 243 256 244 265 269 268 269 272 273 275 275 275 278 277 276 275 275
232 238 245 242 248 249 246 249 258 257 267 269 270 270 270 268 267 266 270 275 277 275 274 275 277 278 279
243 235 241 250 246 250 256 263 266 263 258 266 266 269 267 265 269 270 271 274 276 277 278 279 278 277 276
249 250 251 252 242 246 246 253 256 256 252 262 262 269 270 268 268 272 277 278 278 278 277 278 280 280 278
245 251 256 253 249 235 232 235 241 254 250 251 259 263 275 272 273 274 273 274 274 279 280 280 280 276 275
247 246 240 236 238 243 246 243 240 248 250 250 250 261 265 276 275 276 278 280 278 275 274 277 279 273 274
233 237 235 230 226 229 236 240 243 253 258 254 253 252 260 265 272 274 270 274 276 277 279 272 275 279 279
250 251 233 242 228 232 230 238 245 249 248 245 243 249 254 262 267 270 275 273 273 270 272 273 275 274 274
265 262 276 258 223 223 224 221 229 232 234 243 243 249 250 254 264 271 270 273 265 264 271 275 273 269 266
269 270 278 271 248 242 240 231 233 238 239 235 240 245 254 261 263 263 268 268 269 272 273 272 269 268 265
246 243 259 260 280 275 236 234 245 239 233 242 248 247 247 249 249 261 263 268 270 271 271 273 275 269 266
248 265 257 251 256 246 256 265 249 251 256 255 254 249 256 256 256 246 263 269 277 275 271 269 271 272 276